This demonstration page uses our WeatherBlox Daily Observations layout. Learn more.

36.17497, -115.13722

Hourly Observations for February 27, 2018

Temp ( °F °C ) Dew Point ( °F °C ) Humidity (%) Winds ( mph kmh ) Pressure ( in mb ) Visibility ( mi km ) Precip ( " mm )
12:53 am 00:53 Clear 50 10 14 -10 24 24 S 7 11 29.82 1010 10 16.0934 0 0
1:53 am 01:53 Clear 44 6.7 13 -10.6 28 28 NNE 3 6 29.82 1010 10 16.0934 0 0
2:53 am 02:53 Clear 44 6.7 13 -10.6 28 28 NW 3 6 29.81 1009 10 16.0934 0 0
3:53 am 03:53 Clear 43 6.1 14 -10 31 31 WNW 5 7 29.81 1010 10 16.0934 0 0
4:53 am 04:53 Mostly Cloudy 44 6.7 15 -9.4 31 31 NNW 3 6 29.82 1010 10 16.0934 0 0
5:53 am 05:53 Cloudy 44 6.7 16 -8.9 32 32 N 3 6 29.83 1010 10 16.0934 0 0
6:53 am 06:53 Mostly Cloudy 46 7.8 16 -8.9 30 30 Calm 29.85 1011 10 16.0934 0 0
7:53 am 07:53 Mostly Cloudy 49 9.4 16 -8.9 27 27 N 6 9 29.87 1011 10 16.0934 0 0
8:53 am 08:53 Cloudy 50 10 16 -8.9 26 26 N 5 7 29.88 1012 10 16.0934 0 0
9:53 am 09:53 Cloudy 52 11.1 15 -9.4 23 23 SSE 7 11 29.9 1013 10 16.0934 0 0
10:53 am 10:53 Cloudy 51 10.6 19 -7.2 28 28 Calm 29.93 1013 10 16.0934 0 0
11:53 am 11:53 Cloudy 51 10.6 25 -3.9 36 36 Calm 29.93 1013 10 16.0934 0 0
12:53 pm 12:53 Mostly Cloudy 51 10.6 25 -3.9 36 36 W 3 6 29.92 1013 10 16.0934 0 0
1:53 pm 13:53 Mostly Cloudy 51 10.6 29 -1.7 43 43 E 8 13 29.92 1013 10 16.0934 0 0
2:53 pm 14:53 Partly Cloudy 50 10 31 -0.6 48 48 SE 8 13 29.93 1013 10 16.0934 0 0
3:53 pm 15:53 Mostly Cloudy 50 10 30 -1.1 46 46 SSE 6 9 29.93 1014 10 16.0934 0 0
4:53 pm 16:53 Sunny 49 9.4 31 -0.6 50 50 SSE 5 7 29.95 1014 10 16.0934 0 0
5:53 pm 17:53 Clear 48 8.9 32 0 54 54 SSE 9 15 29.96 1015 10 16.0934 0 0
6:53 pm 18:53 Mostly Cloudy 47 8.3 32 0 56 56 S 7 11 29.99 1016 10 16.0934 0 0
7:53 pm 19:53 Clear 45 7.2 32 0 61 61 SSE 6 9 30 1016 10 16.0934 0 0
8:53 pm 20:53 Clear 44 6.7 32 0 63 63 Calm 30.01 1016 10 16.0934 0 0
9:53 pm 21:53 Mostly Clear 42 5.6 33 0.6 71 71 Calm 30.01 1016 10 16.0934 0 0
10:53 pm 22:53 Cloudy 41 5 32 0 70 70 N 3 6 30.02 1017 10 16.0934 0 0
11:53 pm 23:53 Clear 40 4.4 32 0 73 73 N 3 6 30.03 1017 10 16.0934 0 0

Powered by AerisWeather